Weather History for Jackson, TN

Change the Weather History Date:

Friday, April 26, 2013

  Actual Average Record
Temperature  
Mean Temperature 53 °F 63 °F  
Max Temperature 64 °F 75 °F 90 °F (1989)
Min Temperature 41 °F 51 °F 38 °F (1972)
Degree Days  
Heating Degree Days 12 4  
Month to date heating degree days 228 183  
Since 1 July heating degree days 3565 3511  
Cooling Degree Days 0 2  
Month to date cooling degree days 52 38  
Year to date cooling degree days 56 49  
Growing Degree Days 3 (Base 50)    
Moisture  
Dew Point 46 °F    
Average Humidity 74    
Maximum Humidity 96    
Minimum Humidity 51    
Precipitation  
Precipitation 0.42 in 0.17 in 2.67 in (2011)
Month to date precipitation 7.83 4.18  
Year to date precipitation 23.62 17.17  
Snow  
Snow 0.00 in 0.00 in - ()
Month to date snowfall 0.0 0.1  
Since 1 July snowfall 1.4 4.7  
Snow Depth 0.00 in    
Sea Level Pressure  
Sea Level Pressure 30.32 in    
Wind  
Wind Speed 5 mph (ENE)    
Max Wind Speed 15 mph    
Max Gust Speed 23 mph    
Visibility 10 miles    
Events Rain , Thunderstorm    
T = Trace of Precipitation, MM = Missing Value Source: NWS Daily Summary

Daily Weather History Graph

Daily Weather History Graph

Search for Another Location

Airport:

Trip Planner

Search our weather history database for the weather conditions in past years. The results will help you decide how hot, cold, wet, or windy it might be!

Date:

Astronomy

Apr. 26, 2013 Rise Set
Actual Time 6:09 AM CDT 7:38 PM CDT
Civil Twilight 5:42 AM CDT 8:05 PM CDT
Nautical Twilight 5:09 AM CDT 8:37 PM CDT
Astronomical Twilight 4:35 AM CDT 9:11 PM CDT
Moon 8:57 PM CDT (4/26) 6:38 AM CDT (4/26)
Length of Visible Light 14h 23m
Length of Day
13h 29m
Full, 99% of the Moon is Illuminated
Apr 26
Full
May 2
Last Quarter
May 9
New
May 17
First Quarter
May 24
Full

Hourly Weather History & Observations

Time (CDT) Temp. Dew Point Humidity Pressure Visibility Wind Dir Wind Speed Gust Speed Precip Events Conditions
12:53 AM 43.0 °F 41.0 °F 93% 30.34 in 10.0 mi Calm Calm - N/A   Clear
2:53 AM 46.9 °F 42.1 °F 83% 30.31 in 10.0 mi ESE 3.5 mph - N/A   Clear
3:53 AM 48.0 °F 41.0 °F 77% 30.31 in 10.0 mi Calm Calm - N/A   Partly Cloudy
4:53 AM 45.0 °F 39.9 °F 82% 30.34 in 10.0 mi Calm Calm - N/A   Clear
5:53 AM 43.0 °F 39.9 °F 89% 30.32 in 10.0 mi Calm Calm - N/A   Clear
6:53 AM 50.0 °F 37.9 °F 63% 30.32 in 10.0 mi SSE 5.8 mph - N/A   Clear
7:53 AM 52.0 °F 43.0 °F 71% 30.35 in 10.0 mi Calm Calm - N/A   Clear
8:53 AM 51.1 °F 45.0 °F 80% 30.44 in 10.0 mi NW 9.2 mph - N/A   Scattered Clouds
9:12 AM 51.8 °F 44.6 °F 76% 30.45 in 10.0 mi NW 3.5 mph - N/A   Mostly Cloudy
9:53 AM 51.1 °F 45.0 °F 80% 30.40 in 10.0 mi East 4.6 mph - N/A   Overcast
10:53 AM 57.0 °F 45.0 °F 64% 30.41 in 10.0 mi Calm Calm - N/A   Partly Cloudy
11:53 AM 61.0 °F 44.1 °F 54% 30.36 in 10.0 mi East 11.5 mph - N/A   Mostly Cloudy
12:53 PM 61.0 °F 43.0 °F 52% 30.34 in 10.0 mi East 9.2 mph - N/A   Overcast
1:53 PM 63.0 °F 46.0 °F 54% 30.31 in 10.0 mi East 8.1 mph - N/A   Mostly Cloudy
2:53 PM 59.0 °F 48.0 °F 67% 30.39 in 10.0 mi North 11.5 mph - N/A   Overcast
3:53 PM 55.9 °F 48.9 °F 77% 30.35 in 10.0 mi ENE 9.2 mph - 0.02 in Rain Light Rain
4:53 PM 54.0 °F 48.0 °F 80% 30.27 in 10.0 mi East 8.1 mph 17.3 mph 0.01 in   Overcast
5:35 PM 53.6 °F 48.2 °F 82% 30.28 in 10.0 mi ENE 9.2 mph - 0.03 in Thunderstorm Overcast
5:50 PM 53.6 °F 48.2 °F 82% 30.29 in 10.0 mi NE 8.1 mph - 0.03 in   Overcast
5:53 PM 53.1 °F 48.0 °F 83% 30.29 in 10.0 mi NE 10.4 mph - 0.03 in   Overcast
6:31 PM 53.6 °F 46.4 °F 77% 30.27 in 10.0 mi NE 9.2 mph - N/A Thunderstorm Overcast
6:53 PM 53.1 °F 48.9 °F 86% 30.31 in 8.0 mi Calm Calm - 0.02 in Rain , Thunderstorm Rain
7:01 PM 51.8 °F 48.2 °F 88% 30.29 in 10.0 mi East 4.6 mph - 0.01 in Rain Light Rain
7:12 PM 51.8 °F 50.0 °F 94% 30.27 in 10.0 mi East 5.8 mph - 0.01 in Rain , Thunderstorm Light Rain
7:33 PM 51.8 °F 48.2 °F 88% 30.24 in 10.0 mi ESE 6.9 mph - 0.01 in Thunderstorm Overcast
7:53 PM 53.1 °F 48.9 °F 86% 30.26 in 10.0 mi NNE 6.9 mph - 0.01 in   Overcast
8:03 PM 51.8 °F 50.0 °F 94% 30.27 in 10.0 mi Calm Calm - 0.00 in Rain , Thunderstorm Light Rain
8:17 PM 51.8 °F 50.0 °F 94% 30.28 in 8.0 mi Calm Calm - 0.02 in Rain , Thunderstorm Light Rain
8:53 PM 52.0 °F 48.9 °F 89% 30.27 in 10.0 mi SE 3.5 mph - 0.04 in Rain , Thunderstorm Light Rain
9:53 PM 51.1 °F 50.0 °F 96% 30.29 in 9.0 mi NE 9.2 mph - 0.24 in Rain , Thunderstorm Light Rain
10:53 PM 52.0 °F 50.0 °F 93% 30.27 in 10.0 mi NE 3.5 mph - 0.05 in   Overcast
11:53 PM 52.0 °F 50.0 °F 93% 30.26 in 10.0 mi East 4.6 mph - N/A   Overcast